Regional Weather Roundup
Issued by NWS

Home | Current Version | Previous Version | Graphics & Text | Print | Product List | Glossary Off
Versions: 1 2 3 4 5 6 7 8 9 10 11 12 13 14 15 16 17 18 19 20 21 22 23 24 25 26 27 28 29 30 31 32 33 34 35 36 37 38 39 40 41 42 43 44 45 46 47 48 49 50

000
ASUS43 KDMX 291607
RWRIA

WEATHER ROUNDUP FOR IOWA
NATIONAL WEATHER SERVICE DES MOINES IA
1100 AM CDT FRI AUG 29 2014

NOTE: "FAIR" INDICATES FEW OR NO CLOUDS BELOW 12,000 FEET WITH NO
SIGNIFICANT WEATHER AND/OR OBSTRUCTIONS TO VISIBILITY.

* - THESE STATIONS ARE NOT NWS STATIONS...THUS NOT UNDER NWS
QUALITY CONTROL.  THEY ALSO DO NOT REPORT WEATHER SUCH
AS PRECIPITATION OR FOG.

IAZ001>003-012>014-020>022-031>034-043>046-291700-
   NORTHWEST IOWA

CITY           SKY/WX    TMP DP  RH WIND       PRES   REMARKS
CARROLL *      CLOUDY    73  70  88 SW9       29.84S
DENISON *      MOSUNNY   72  72 100 S8G14     29.82R
LE MARS *      CLOUDY    72  70  94 SW7       29.82R
ORANGE CITY *  LGT RAIN  72  68  88 S7        29.82R
SHELDON *      CLOUDY    72  70  94 S9        29.81R
SIOUX CITY     LGT RAIN  73  70  90 SW3       29.82R
SPENCER        LGT RAIN  70  67  90 S9        29.82S
STORM LAKE *   SUNNY     70  70 100 S6        29.83S FOG
$$

IAZ055>058-069>071-079>083-090>094-291700-
   SOUTHWEST IOWA

CITY           SKY/WX    TMP DP  RH WIND       PRES   REMARKS
ATLANTIC *     MOSUNNY   73  70  88 S10       29.85R
AUDUBON *      PTSUNNY   75  72  88 S9        29.86R
CLARINDA *     PTSUNNY   72  66  83 S7        29.87F
COUNCIL BLFS * DRIZZLE   72  72 100 S8        29.84R
CRESTON *      MOSUNNY   77  72  83 S10       29.86S
HARLAN  *      PTSUNNY   72  72 100 S7        29.88R
RED OAK *      CLOUDY    72  68  88 SW14G23   29.86S FOG
SHENANDOAH *   SUNNY     70  68  94 S9        29.86F
$$

IAZ047>049-059>061-072>074-084-291700-
   CENTRAL IOWA

CITY           SKY/WX    TMP DP  RH WIND       PRES   REMARKS
AMES           SUNNY     79  72  79 S9        29.83F HX  82
ANKENY *       SUNNY     81  72  74 S8        29.83S HX  84
CHARITON *     MOSUNNY   79  70  73 S12       29.86F HX  81
DES MOINES     MOSUNNY   81  71  71 S14       29.83S HX  85
GRINNELL*      SUNNY     79  72  78 SE13      29.87S HX  82
KNOXVILLE *    SUNNY     81  70  69 S12G20    29.84F HX  84
MARSHALLTOWN   SUNNY     80  71  74 S12       29.84F HX  84
PELLA *        SUNNY     82  72  69 S9        29.87F HX  87
PERRY *          N/A     77  72  83 S8        29.83S
$$

IAZ004>006-015-016-023>025-035-036-291700-
   NORTH CENTRAL IOWA

CITY           SKY/WX    TMP DP  RH WIND       PRES   REMARKS
ALGONA *       MOSUNNY   75  70  83 S17       29.82F
CLARION *      SUNNY     77  70  78 S16       29.83R
ESTHERVILLE    CLOUDY    72  68  87 SW10      29.81F
FORT DODGE *   PTSUNNY   75  70  83 SW7       29.83F
MASON CITY     PTSUNNY   79  71  76 S13       29.84S HX  82
FOREST CITY *  SUNNY     79  72  78 S12       29.82F HX  82
IOWA FALLS *     N/A     79  70  73 S12       29.84F HX  81
$$

IAZ007>011-017>019-026>030-037>042-050>054-066-291700-
   NORTHEAST IOWA

CITY           SKY/WX    TMP DP  RH WIND       PRES   REMARKS
CEDAR RAPIDS   SUNNY     79  72  79 S9        29.88S HX  82
CHARLES CITY * PTSUNNY   77  72  83 S9        29.85F
CLINTON *      SUNNY     79  72  78 S8        29.94F HX  82
DECORAH *      PTSUNNY   75  70  83 S9        29.86S
DUBUQUE        MOSUNNY   76  70  82 S15       29.91S
MONTICELLO *   MOSUNNY   79  72  78 S10       29.89S HX  82
OELWEIN *      MOSUNNY   77  72  83 S14       29.87F
WATERLOO       SUNNY     79  70  74 S13       29.83F HX  82
$$

IAZ064-065-067-068-078-291700-
   EAST CENTRAL IOWA

CITY           SKY/WX    TMP DP  RH WIND       PRES   REMARKS
DAVENPORT      SUNNY     80  71  74 S12       29.92S HX  84
IOWA CITY      SUNNY     80  73  79 S13       29.90F HX  84
MT. PLEASANT * SUNNY     82  70  65 S7        29.91F HX  86
MUSCATINE *    SUNNY     82  72  69 S10G16    29.91S HX  87
QUAD CITIES    SUNNY     81  71  71 SW12      29.92R HX  85
$$

IAZ062-063-075>077-085>089-095>099-291700-
   SOUTHEAST IOWA

CITY           SKY/WX    TMP DP  RH WIND       PRES   REMARKS
BURLINGTON     SUNNY     81  72  74 S12       29.92S HX  85
FAIRFIELD *    SUNNY     81  70  69 S10       29.89F HX  84
FORT MADISON * SUNNY     82  73  74 S6        29.93S HX  88
KEOKUK *       SUNNY     81  72  74 S9        29.91S HX  84
OSKALOOSA *      N/A     81  72  74 S12       29.88S HX  84
CENTERVILLE *  SUNNY     81  72  74 S7        29.90S HX  84
OTTUMWA        SUNNY     81  70  69 S10       29.86F HX  84
WASHINGTON *   SUNNY     81  73  78 S12       29.89F HX  85
$$

ABBREVIATIONS USED IN REMARKS
   TC - TEMPERATURES IN CELSIUS
  WCI - WIND CHILL INDEX
   HX - HEAT INDEX
  VSB - VISIBILITY
$$




USA.gov is the U.S. government's official web portal to all federal, state and local government web resources and services.